TimeMDT,TemperatureF,Dew PointF,Humidity,Sea Level PressureIn,VisibilityMPH,Wind Direction,Wind SpeedMPH,Gust SpeedMPH,PrecipitationIn,Events,Conditions,WindDirDegrees,DateUTC
12:35 AM,57.2,26.6,31,29.90,10.0,SE,11.5,-,N/A,,Clear,130,2013-04-28 06:35:00
12:55 AM,57.2,24.8,29,29.90,10.0,WSW,8.1,-,N/A,,Clear,250,2013-04-28 06:55:00
1:15 AM,62.6,23.0,22,29.90,10.0,SW,13.8,18.4,N/A,,Clear,220,2013-04-28 07:15:00
1:35 AM,62.6,23.0,22,29.90,10.0,SW,13.8,20.7,N/A,,Clear,230,2013-04-28 07:35:00
1:55 AM,60.8,23.0,23,29.90,10.0,West,11.5,18.4,N/A,,Clear,260,2013-04-28 07:55:00
2:15 AM,60.8,21.2,22,29.90,10.0,West,12.7,-,N/A,,Clear,260,2013-04-28 08:15:00
2:35 AM,60.8,21.2,22,29.90,10.0,West,6.9,18.4,N/A,,Clear,270,2013-04-28 08:35:00
2:55 AM,60.8,21.2,22,29.90,10.0,WSW,5.8,-,N/A,,Partly Cloudy,250,2013-04-28 08:55:00
3:15 AM,57.2,23.0,27,29.90,10.0,NNW,4.6,-,N/A,,Clear,340,2013-04-28 09:15:00
3:35 AM,53.6,24.8,33,29.91,10.0,WNW,4.6,-,N/A,,Partly Cloudy,300,2013-04-28 09:35:00
3:55 AM,53.6,24.8,33,29.92,10.0,North,8.1,-,N/A,,Mostly Cloudy,350,2013-04-28 09:55:00
4:35 AM,55.4,23.0,29,29.93,10.0,North,3.5,-,N/A,,Partly Cloudy,350,2013-04-28 10:35:00
4:55 AM,53.6,23.0,30,29.93,10.0,Calm,Calm,-,N/A,,Scattered Clouds,0,2013-04-28 10:55:00
5:15 AM,53.6,23.0,30,29.94,10.0,NW,3.5,-,N/A,,Scattered Clouds,310,2013-04-28 11:15:00
5:35 AM,48.2,23.0,37,29.95,10.0,NNW,5.8,-,N/A,,Scattered Clouds,340,2013-04-28 11:35:00
5:55 AM,48.2,24.8,40,29.95,10.0,WNW,5.8,-,N/A,,Partly Cloudy,290,2013-04-28 11:55:00
6:15 AM,48.2,23.0,37,29.95,10.0,Calm,Calm,-,N/A,,Partly Cloudy,0,2013-04-28 12:15:00
6:35 AM,46.4,24.8,43,29.95,10.0,Calm,Calm,-,N/A,,Scattered Clouds,0,2013-04-28 12:35:00
7:15 AM,48.2,26.6,43,29.95,10.0,South,4.6,-,N/A,,Overcast,180,2013-04-28 13:15:00
7:35 AM,48.2,26.6,43,29.96,10.0,Calm,Calm,-,N/A,,Scattered Clouds,0,2013-04-28 13:35:00
7:55 AM,51.8,26.6,38,29.95,10.0,Calm,Calm,-,N/A,,Clear,0,2013-04-28 13:55:00
8:15 AM,53.6,26.6,35,29.96,10.0,North,3.5,-,N/A,,Clear,10,2013-04-28 14:15:00
8:35 AM,53.6,26.6,35,29.97,10.0,North,4.6,-,N/A,,Mostly Cloudy,10,2013-04-28 14:35:00
8:55 AM,53.6,26.6,35,29.97,10.0,NE,6.9,-,N/A,,Overcast,40,2013-04-28 14:55:00
9:15 AM,53.6,26.6,35,29.97,10.0,NNE,8.1,-,N/A,,Overcast,20,2013-04-28 15:15:00
9:55 AM,53.6,26.6,35,29.99,10.0,North,12.7,-,N/A,,Overcast,350,2013-04-28 15:55:00
10:35 AM,53.6,28.4,38,29.99,10.0,North,10.4,-,N/A,,Overcast,350,2013-04-28 16:35:00
10:55 AM,53.6,28.4,38,29.99,10.0,North,12.7,-,N/A,,Overcast,10,2013-04-28 16:55:00
11:15 AM,53.6,30.2,41,29.99,10.0,North,11.5,18.4,N/A,,Overcast,360,2013-04-28 17:15:00
11:35 AM,53.6,30.2,41,29.99,10.0,North,15.0,-,N/A,,Overcast,10,2013-04-28 17:35:00
11:55 AM,53.6,30.2,41,29.99,10.0,NNE,12.7,20.7,N/A,,Overcast,20,2013-04-28 17:55:00
12:15 PM,53.6,33.8,47,29.99,10.0,North,17.3,-,N/A,,Overcast,360,2013-04-28 18:15:00
12:55 PM,51.8,35.6,54,30.00,10.0,North,18.4,-,N/A,,Overcast,360,2013-04-28 18:55:00
1:15 PM,48.2,37.4,66,30.00,10.0,North,16.1,20.7,N/A,,Overcast,350,2013-04-28 19:15:00
1:35 PM,51.8,37.4,58,30.00,10.0,North,13.8,-,N/A,,Overcast,360,2013-04-28 19:35:00
1:55 PM,51.8,35.6,54,29.99,10.0,NNW,11.5,18.4,N/A,,Overcast,340,2013-04-28 19:55:00
2:15 PM,51.8,37.4,58,29.98,10.0,NW,8.1,-,N/A,,Overcast,310,2013-04-28 20:15:00
2:55 PM,53.6,35.6,51,29.96,10.0,Calm,Calm,-,N/A,,Partly Cloudy,0,2013-04-28 20:55:00
3:16 PM,53.6,35.6,51,29.95,10.0,ESE,5.8,-,N/A,,Clear,110,2013-04-28 21:16:00
3:35 PM,57.2,35.6,44,29.93,10.0,West,6.9,-,N/A,,Partly Cloudy,280,2013-04-28 21:35:00
4:15 PM,57.2,35.6,44,29.91,10.0,Calm,Calm,-,N/A,,Clear,0,2013-04-28 22:15:00
4:55 PM,57.2,35.6,44,29.89,10.0,NNE,5.8,-,N/A,,Mostly Cloudy,20,2013-04-28 22:55:00
5:15 PM,57.2,33.8,41,29.90,10.0,NNE,9.2,-,N/A,,Overcast,20,2013-04-28 23:15:00
5:35 PM,60.8,33.8,36,29.90,10.0,WSW,15.0,19.6,N/A,,Overcast,240,2013-04-28 23:35:00
5:55 PM,62.6,30.2,30,29.89,10.0,WSW,15.0,26.5,N/A,,Mostly Cloudy,250,2013-04-28 23:55:00
6:15 PM,60.8,28.4,29,29.88,10.0,West,16.1,24.2,N/A,,Scattered Clouds,260,2013-04-29 00:15:00
6:35 PM,60.8,28.4,29,29.87,10.0,West,12.7,21.9,N/A,,Clear,270,2013-04-29 00:35:00
6:55 PM,60.8,28.4,29,29.87,10.0,West,12.7,18.4,N/A,,Partly Cloudy,280,2013-04-29 00:55:00
7:15 PM,59.0,28.4,31,29.87,10.0,WNW,6.9,-,N/A,,Mostly Cloudy,290,2013-04-29 01:15:00
7:35 PM,59.0,28.4,31,29.86,10.0,West,8.1,-,N/A,,Overcast,270,2013-04-29 01:35:00
7:55 PM,57.2,28.4,33,29.86,10.0,West,4.6,-,N/A,,Overcast,260,2013-04-29 01:55:00
8:15 PM,57.2,28.4,33,29.86,10.0,SSW,6.9,-,N/A,,Overcast,210,2013-04-29 02:15:00
8:35 PM,55.4,28.4,36,29.86,10.0,South,3.5,-,N/A,,Overcast,190,2013-04-29 02:35:00
8:55 PM,55.4,30.2,38,29.87,10.0,ENE,4.6,-,N/A,,Overcast,60,2013-04-29 02:55:00
9:15 PM,55.4,32.0,41,29.87,10.0,ENE,3.5,-,N/A,,Overcast,70,2013-04-29 03:15:00
9:55 PM,55.4,33.8,44,29.86,10.0,South,9.2,-,N/A,,Overcast,180,2013-04-29 03:55:00
10:15 PM,55.4,35.6,47,29.86,10.0,SSW,9.2,-,N/A,,Overcast,210,2013-04-29 04:15:00
10:35 PM,53.6,33.8,47,29.85,10.0,West,4.6,-,N/A,,Overcast,260,2013-04-29 04:35:00
10:55 PM,55.4,32.0,41,29.84,10.0,SW,5.8,-,N/A,,Overcast,230,2013-04-29 04:55:00
11:35 PM,55.4,32.0,41,29.82,10.0,WSW,8.1,-,N/A,,Overcast,250,2013-04-29 05:35:00